Regional Weather Roundup
Issued by NWS

Home | Current Version | Previous Version | Graphics & Text | Print | Product List | Glossary On
Versions: 1 2 3 4 5 6 7 8 9 10 11 12 13 14 15 16 17 18 19 20 21 22 23 24 25 26 27 28 29 30 31 32 33 34 35 36 37 38 39 40 41 42 43 44 45 46 47 48 49 50
580
ASUS43 KLOT 181608
RWRIL

ILLINOIS REGIONAL WEATHER ROUNDUP
NATIONAL WEATHER SERVICE CHICAGO/ROMEOVILLE IL
1000 AM CST SAT NOV 18 2017

NOTE: "FAIR" INDICATES FEW OR NO CLOUDS BELOW 12,000 FEET WITH NO
SIGNIFICANT WEATHER AND/OR OBSTRUCTIONS TO VISIBILITY.

* THESE STATIONS ARE NOT UNDER NWS QUALITY CONTROL. THEY ALSO MAY NOT
  REPORT WEATHER SUCH AS PRECIPITATION OR FOG.

ILZ001-002-007-009-015-016-024-181700-
NORTHWEST ILLINOIS

CITY           SKY/WX    TMP DP  RH WIND       PRES   REMARKS
MOLINE         LGT RAIN  40  35  83 N16G25    29.56R
STERLING*        N/A    N/A N/A N/A MISG        N/A
SAVANNA*       LGT RAIN  37  35  92 N14       29.57R WCI  29
$$

ILZ003-004-008-010-011-017-018-181700-
NORTH CENTRAL ILLINOIS

CITY           SKY/WX    TMP DP  RH WIND       PRES   REMARKS
ROCKFORD       LGT RAIN  35  33  92 N16       29.56S FOG     WCI  25
FREEPORT*      DRIZZLE   35  33  95 N17G23    29.57F WCI  24
ROCHELLE*      RAIN      36  35  96 N16G26    29.51S WCI  26
DE KALB*       LGT RAIN  36  35  96 N22G29    29.50F WCI  25
PERU*          RAIN      38  37  93 NE23G29   29.45F WCI  28
$$

ILZ005-006-012>014-019>023-181700-
NORTHEAST ILLINOIS

CITY           SKY/WX    TMP DP  RH WIND       PRES   REMARKS
CHICAGO-OHARE  LGT RAIN  41  37  86 N17G32    29.47S FOG
CHICAGO-MIDWAY LGT RAIN  43  41  93 N18G24    29.46S FOG
AURORA         LGT RAIN  40  37  89 N18G30    29.49R FOG
LANSING*       MIX PCPN  43  43 100 N18G26    29.41F
JOLIET*        CLOUDY    42  41  96 N14G20    29.45S
WAUKEGAN       LGT RAIN  37  36  96 N14G22    29.48F FOG     WCI  28
DUPAGE AIRPORT RAIN      38  37  97 N21G28    29.48R FOG     WCI  28
KANKAKEE*      TSTM      44  44  98 N18G24    29.40R
WHEELING       LGT RAIN  40  38  93 N12G23    29.49F
MORRIS*        HVY RAIN  40  39  95 N15       29.43F
ROMEOVILLE*    HVY RAIN  40  39  94 N20G25    29.46S
NORTHERLY ISL    N/A     42  40  92 NW22        N/A
$$

LMZ740>746-181700-
SOUTHERN LAKE MICHIGAN

STATION/POSITION SKY/WX   TEMP    WIND        PRES    VSBY  WAVE
                          AIR SEA DIR/SP/G                  HT/PER
                          (F)     (DEG/KT/KT) (MB)    (MI)  (FT/S)
SOUTHERN BUOY              45 49   10/ 19/ 23  998.5          3/ 4
HARRISON CRIB              44     360/ 25/ 30   N/A
BURNHAM HARBOR             42     340/ 21/ 22   N/A
BURNS HARBOR               46      10/ 21/ 25  997.0F
MICHIGAN CITY              45      10/ 22/ 24   N/A
$$

ILZ025>027-034>036-040-047-049-050-058-095>099-181700-
WEST-CENTRAL ILLINOIS

CITY           SKY/WX    TMP DP  RH WIND       PRES   REMARKS
QUINCY         LGT RAIN  42  39  89 N24G37    29.54R
GALESBURG*     LGT RAIN  39  39 100 N17G25    29.53R WCI  30
MACOMB*        LGT RAIN  40  40  98 N20G26    29.55R
JACKSONVILLE*  DRIZZLE   44  42  93 NW20G28   29.44R
PITTSFIELD*    RAIN      45  43  93 NW17G24   29.50R
$$

ILZ028>032-037-038-041>044-048-051>054-059>061-181700-
CENTRAL ILLINOIS

CITY           SKY/WX    TMP DP  RH WIND       PRES   REMARKS
PONTIAC        RAIN      43  42  98 N21G28    29.45R
BLOOMINGTON    LGT RAIN  43  42  97 N24G33    29.38S
DECATUR        TSTM      54  52  93 NW24G38   29.34R
PEORIA         LGT RAIN  41  39  93 N14G29    29.47R FOG
LACON*         RAIN      39  38  97 N14G21    29.48R WCI  31
LINCOLN*       DRIZZLE   46  45  97 N20G33    29.39S
SPRINGFIELD    LGT RAIN  48  46  93 N24G32    29.40S
TAYLORVILLE    DRIZZLE   50  48  93 N31       29.36R
$$

ILZ033-039-045-046-055>057-062-063-181700-
EAST-CENTRAL ILLINOIS

CITY           SKY/WX    TMP DP  RH WIND       PRES   REMARKS
CHAMPAIGN      TSTM      57  55  93 N13       29.30R VSB 1
DANVILLE*      RAIN      55  54  96 W8        29.27R
RANTOUL*       LGT RAIN  53  52  99 N15       29.29R
MATTOON        CLOUDY    66  61  84 SW17G29   29.30R
PARIS*         CLOUDY    64  61  90 SW30G36   29.31R
$$

ILZ079-100>102-181700-
SOUTHWEST ILLINOIS

CITY           SKY/WX    TMP DP  RH WIND       PRES   REMARKS
ALTON          CLOUDY    54  52  94 NW17G29   29.38F
BELLEVILLE     PTSUNNY   70  63  78 S16G22    29.33F
CAHOKIA*       LGT RAIN  72  62  71 SW13G23   29.33F
SPARTA*        CLOUDY    66  63  90 S14G20    29.40F
$$

ILZ064>066-069>071-074>076-080>082-084>086-088>090-092>094-181700-
SOUTH-CENTRAL ILLINOIS

CITY           SKY/WX    TMP DP  RH WIND       PRES   REMARKS
CARBONDALE     CLOUDY    66  63  90 S23G31    29.43F
CAIRO*         CLOUDY    67  62  83 S18G26    29.50F
EFFINGHAM*     CLOUDY    68  63  84 S22G32    29.35S
MARION         CLOUDY    68  66  94 S23G32    29.46R
MT. VERNON     LGT RAIN  66  62  87 S25G32    29.40S
CENTRALIA*     CLOUDY    67  64  87 S22G32    29.37R
SALEM*         CLOUDY    68  62  80 S25G32    29.37R
METROPOLIS*    LGT RAIN  64  62  91 S10G16    29.53F
$$

ILZ067-068-072-073-078-083-087-091-181700-
SOUTHEAST ILLINOIS

CITY           SKY/WX    TMP DP  RH WIND       PRES   REMARKS
LAWRENCEVILLE  CLOUDY    67  60  78 SW30G40   29.38F
FLORA*         CLOUDY    67  63  85 S25G32    29.37S
FAIRFIELD*     DRIZZLE   65  63  92 S15G22    29.40F
HARRISBURG*    CLOUDY    66  63  88 S20G32    29.46S
ROBINSON*      CLOUDY    65  60  83 SW29G38   29.36S
$$

ABBREVIATIONS USED IN REMARKS
   TC - TEMPERATURE IN CELSIUS
  WCI - WIND CHILL INDEX
   HX - HEAT INDEX
  VSB - VISIBILITY
$$





USA.gov is the U.S. government's official web portal to all federal, state and local government web resources and services.